NOAA NWS Hourly Roundups by Site

Regional Weather Roundup for Omaha, NE

To Select Another Site Choose from List

Select Site:  

922
ASUS43 KOAX 170410
RWRNE

WEATHER ROUNDUP FOR NEBRASKA
NATIONAL WEATHER SERVICE OMAHA NE
1100 PM CDT SUN JUN 16 2024

NOTES: SATELLITE DATA IS BEING USED TO AUGMENT CLOUD COVER ABOVE
       12000 FEET.
       "FAIR" INDICATES FEW OR NO CLOUDS BELOW 12,000 FEET WITH NO
       SIGNIFICANT WEATHER AND/OR OBSTRUCTIONS TO VISIBILITY.


NEZ001>004-019>022-054>056-170500-
NEBRASKA PANHANDLE

CITY           SKY/WX    TMP DP  RH WIND       PRES   REMARKS
SCOTTSBLUFF    MOCLDY    71  53  52 E15       29.75F
ALLIANCE       CLOUDY    68  50  52 E14       29.79R
CHADRON        MOCLDY    64  41  42 NE9       29.79R
GORDON         CLOUDY    62  40  45 E15       29.82R
KIMBALL        LGT RAIN  62  59  91 E14G26    29.79S
SIDNEY         LGT RAIN  67  55  65 E21G29    29.77R
$$

NEZ057>060-069>072-079>082-170500-
SOUTHWEST NEBRASKA

CITY           SKY/WX    TMP DP  RH WIND       PRES   REMARKS
NORTH PLATTE   PTCLDY    71  62  73 E9        29.72R
GRANT          PTCLDY    70  64  83 E20G28    29.68F
IMPERIAL       CLEAR     76  67  73 E14       29.66R
LEXINGTON      DRIZZLE   75  67  76 E10       29.69S
MCCOOK         CLEAR    N/A N/A N/A SE14      29.65S
OGALLALA       PTCLDY    73  60  65 E20G25    29.70F
$$

NEZ005>010-023>029-035>040-094-170500-
NORTH CENTRAL NEBRASKA

CITY           SKY/WX    TMP DP  RH WIND       PRES   REMARKS
VALENTINE      CLOUDY    55  49  80 NE13      29.84S THUNDER
AINSWORTH      CLOUDY    65  43  44 N18G26    29.82R
BROKEN BOW     MOCLDY    71  62  73 MISG      29.73S
O`NEILL        CLOUDY    71  45  39 NE13G18   29.75S
ORD            MOCLDY    72  62  71 E10       29.71F
THEDFORD       PTCLDY    66  54  63 E10       29.74F
$$

NEZ041-046>049-061>064-073>077-083>087-170500-
SOUTH CENTRAL NEBRASKA

CITY           SKY/WX    TMP DP  RH WIND       PRES   REMARKS
GRAND ISLAND   CLOUDY    82  71  69 SE13G21   29.71S
AURORA         CLOUDY    79  71  75 SE9       29.73R
HASTINGS       CLOUDY    83  67  58 SE14      29.73R
HEBRON         MOCLDY    81  70  68 S10       29.74R
HOLDREGE       CLOUDY    82  72  69 S22G32    29.67S
KEARNEY        CLOUDY    82  70  66 SE16      29.69R
YORK           CLOUDY    79  70  73 SE12G18   29.73S
$$

NEZ011>018-030>034-042>045-170500-
NORTHEAST NEBRASKA

CITY           SKY/WX    TMP DP  RH WIND       PRES   REMARKS
NORFOLK        CLOUDY    77  65  66 E5        29.73F
ALBION         MOCLDY    74  62  67 E10       29.73F
BLAIR          CLEAR     82  76  80 SE7       29.76S
COLUMBUS       MOCLDY    82  75  79 SE10      29.73F
FREMONT        PTCLDY    82  73  74 SE10      29.75S
TEKAMAH        MOCLDY    83  74  74 SE9       29.73S
$$

NEZ050>053-065>068-078-088>093-170500-
SOUTHEAST NEBRASKA

CITY           SKY/WX    TMP DP  RH WIND       PRES   REMARKS
LINCOLN        PTCLDY    83  73  72 S13       29.75R
OMAHA EPPLEY   PTCLDY    82  76  81 SE10      29.75R
BEATRICE       PTCLDY    82  72  71 S10G17    29.75S
FALLS CITY     CLEAR     83  71  67 S13       29.78R
NEBRASKA CITY  CLEAR     80  74  81 S14       29.78R
PLATTSMOUTH    CLEAR     80  75  85 SE8       29.77R
$$

NEZ044-045-051>053-067-170500-
OMAHA AREA

CITY           SKY/WX    TMP DP  RH WIND       PRES   REMARKS
OMAHA EPPLEY   PTCLDY    82  76  81 SE10      29.75R
BLAIR          CLEAR     82  76  80 SE7       29.76S
FREMONT        PTCLDY    82  73  74 SE10      29.75S
MILLARD        CLEAR     81  76  84 SE7       29.76R
OFFUTT AFB     CLEAR     82  75  79 SE9       29.74R
PLATTSMOUTH    CLEAR     80  75  85 SE8       29.77R
WAHOO          PTCLDY    80  75  86 SE9       29.75S
$$



 

View Past Reports for Omaha, NE.

Products Courtesy of NOAA-NWS
NWS Information Parsing Script by Ken True at Saratoga Weather - Script by SE Lincoln Weather.